Hourly Weather Roundup
Issued by NWS Central Illinois

Home | Current Version | Previous Version | Text Only | Print | Product List | Glossary On
Versions: 1 2 3 4 5 6 7 8 9 10 11 12 13 14 15 16 17 18 19 20 21 22 23 24 25 26 27 28 29 30 31 32 33 34 35 36 37 38 39 40 41 42 43 44 45 46 47 48 49 50
260
NZUS43 KILX 090810
HWRILX

AREA WEATHER ROUNDUP
NATIONAL WEATHER SERVICE, LINCOLN IL
200 AM CST TUE FEB 09 2016


CITY           SKY/WX    TMP DP  RH WIND       PRES   REMARKS
BLOOMINGTON    CLOUDY    18  12  77 NW14      29.80S WCI   4
CHAMPAIGN      CLOUDY    19  13  77 W16       29.79F WCI   4
DANVILLE       CLOUDY    19  14  81 W14G21    29.74F WCI   6
DECATUR        FLURRIES  19  11  70 NW13G18   29.82F WCI   6
EFFINGHAM      LGT SNOW  19  16  88 W10       29.86S WCI   8
FLORA          FLURRIES  22  17  81 W10       29.87S WCI  11
GALESBURG      LGT SNOW  16  13  89 NW9G17    29.85S WCI   4
JACKSONVILLE   LGT SNOW  20  14  78 NW17G24   29.88S WCI   5
LACON          FLURRIES  18  11  73 NW10G18   29.82S WCI   6
LAWRENCEVILLE  FLURRIES  20  14  77 NW15      29.85S WCI   6
LITCHFIELD     FLURRIES  19  11  73 NW16G25   29.86F WCI   4
$$


CITY           SKY/WX    TMP DP  RH WIND       PRES   REMARKS
LINCOLN        CLOUDY    19  12  72 NW9G20    29.84S WCI   9
MACOMB         FLURRIES  17  14  87 NW16      29.89F WCI   2
MATTOON        LGT SNOW  17  12  80 NW14      29.81S WCI   3
MT CARMEL AP   LGT SNOW  21  18  86 W15G21    29.85S WCI   8
OLNEY-NOBLE AP FLURRIES  21  16  79 W10       29.86S WCI  10
PARIS          CLOUDY    19  16  88 W12       29.79F WCI   7
PEORIA         LGT SNOW  17  11  77 NW9       29.83F WCI   6
PONTIAC        CLOUDY    21  15  79 W20       29.79S WCI   5
RANTOUL        CLOUDY    21  15  79 W15       29.78S WCI   7
ROBINSON       CLOUDY    19  14  80 W15       29.85S WCI   5
SPRINGFIELD    FLURRIES  19  13  77 W14       29.86S WCI   6
TAYLORVILLE    FLURRIES  19  12  73 W16       29.85F WCI   5
$$

...REGIONAL REPORTS...


CITY           SKY/WX    TMP DP  RH WIND       PRES   REMARKS
CHICAGO O`HARE LGT SNOW  19  15  84 NW14      29.72S FOG     WCI   6
KANKAKEE       FLURRIES  22  17  79 W12       29.75F WCI  11
MOLINE         LGT SNOW  17  10  74 NW14G23   29.86S WCI   3
MOUNT STERLING LGT SNOW  17  13  86 NW13G18   29.88S WCI   3
MOUNT VERNON   CLOUDY    21  10  63 W5        29.88S WCI  15
PITTSFIELD     FLURRIES  19  14  81 NW13G18   29.90F WCI   6
QUINCY         LGT SNOW  17  12  80 NW16      29.90S WCI   2
ROCKFORD       FLURRIES  18  10  71 N13       29.79S WCI   5
$$


CITY           SKY/WX    TMP DP  RH WIND       PRES   REMARKS
BURLINGTON     LGT SNOW  17  13  84 NW10      29.88S FOG     WCI   5
CEDAR RAPIDS   LGT SNOW  14  11  87 NW17      29.88S FOG     WCI  -3
DES MOINES     LGT SNOW  14   6  70 N17G25    30.01R WCI  -3
KIRKSVILLE     FLURRIES  17   7  64 NW16G26   29.95R WCI   2
OTTUMWA        FLURRIES  14   9  80 NW24G32   29.94F WCI  -5
ST LOUIS       LGT SNOW  21  15  78 NW12      29.91F WCI   9
$$


CITY           SKY/WX    TMP DP  RH WIND       PRES   REMARKS
TERRE HAUTE    CLOUDY    20  15  81 W8        29.79F WCI  10
EVANSVILLE     FLURRIES  24  14  65 NW9G18    29.86F WCI  14
INDIANAPOLIS   FLURRIES  21  17  84 W14       29.72S WCI   8
LAFAYETTE      CLOUDY    21  16  81 W14       29.74S WCI   8
MADISON        LGT SNOW  14   8  77 NW8G20    29.79R WCI   3
MILWAUKEE      LGT SNOW  19  14  81 NW10      29.72S WCI   7
$$






USA.gov is the U.S. government's official web portal to all federal, state and local government web resources and services.